Flag for U.S.A. Weather past 2 weeks in Greeley, Colorado, U.S.A.

Now
16 °F

Clear.


Feels Like: 16 °F
Forecast: 12 / 47 °F
Wind: No wind

Location: Greeley / Weld

Current Time: Dec 20, 2014 at 5:34:30 AM

Latest Report: Dec 20, 2014 at 4:55 AM


Visibility: 10 mi

Pressure: 29.99 "Hg

Humidity: 67%

Dew point: 7 °F

Location of GreeleyLocation

Historic Weather in Greeley — Graph

°F

Greeley temperature yesterday

Maximum temperature yesterday: 48 °F (at 12:55 PM)
Minimum temperature yesterday: 10 °F (at 4:35 AM)
Average temperature yesterday: 26 °F

Past Weeks' High & Low Weather Summary

 TemperatureHumidityPressure
High57 °F (Dec 11, 2:55 PM)86% (Dec 15, 7:35 AM)30.35 "Hg (Dec 15, 7:35 AM)
Low10 °F (Dec 16, 4:35 AM)24% (Dec 10, 12:55 PM)29.71 "Hg (Dec 14, 12:55 AM)
Average29 °F61%30.04 "Hg
* Reported Dec 5 4:15 AM — Dec 20 4:35 AM, Greeley, Weather by CustomWeather, © 2014

Note: Actual official high and low records may vary slightly from our data, if they occured in-between our weather recording intervals... More about our weather records

Advertising

Greeley weather history for previous 24 hours

 ConditionsComfort  
Time TempWeatherWind HumidityBarometerVisibility
4:35 AM
Dec 20
16 °FClear.No wind73%29.99 "Hg10 mi
4:15 AM16 °FClear.5 mph67%29.99 "Hg10 mi
3:55 AM16 °FClear.5 mph62%29.99 "Hg10 mi
3:35 AM16 °FClear.5 mph67%30.00 "Hg10 mi
3:15 AM16 °FClear.3 mph67%29.99 "Hg10 mi
2:55 AM16 °FClear.7 mph67%29.99 "Hg10 mi
2:35 AM16 °FClear.8 mph67%30.00 "Hg10 mi
2:15 AM16 °FClear.3 mph67%30.00 "Hg10 mi
1:55 AM16 °FClear.3 mph67%30.00 "Hg10 mi
1:35 AM18 °FClear.8 mph62%30.00 "Hg10 mi
1:15 AM16 °FClear.7 mph73%30.00 "Hg10 mi
12:55 AM16 °FClear.3 mph67%30.00 "Hg10 mi
12:35 AM16 °FClear.3 mph73%29.99 "Hg10 mi
12:15 AM18 °FClear.3 mph73%29.99 "Hg10 mi
11:55 PM
Dec 19
16 °FClear.7 mph67%30.00 "Hg10 mi
11:35 PM18 °FClear.8 mph68%30.00 "Hg10 mi
11:15 PM18 °FClear.8 mph68%30.01 "Hg10 mi
10:55 PM18 °FClear.8 mph68%30.01 "Hg10 mi
10:35 PM18 °FClear.5 mph62%30.00 "Hg10 mi
10:15 PM18 °FClear.No wind68%30.00 "Hg10 mi
9:55 PM18 °FClear.3 mph68%30.00 "Hg10 mi
9:35 PM18 °FClear.No wind68%29.99 "Hg10 mi
8:55 PM19 °FClear.3 mph63%30.00 "Hg10 mi
8:35 PM21 °FClear.7 mph58%30.00 "Hg10 mi
7:55 PM21 °FClear.6 mph68%30.00 "Hg10 mi
7:35 PM25 °FClear.No wind63%30.00 "Hg10 mi
7:15 PM27 °FClear.No wind64%30.00 "Hg10 mi
6:55 PM27 °FClear.5 mph64%30.00 "Hg10 mi
6:35 PM28 °FClear.6 mph64%30.00 "Hg10 mi
6:15 PM28 °FClear.3 mph64%30.00 "Hg10 mi
5:55 PM28 °FClear.6 mph59%30.00 "Hg10 mi
5:35 PM30 °FClear.7 mph55%30.00 "Hg10 mi
5:15 PM32 °FClear.7 mph51%30.00 "Hg10 mi
4:55 PM34 °FClear.8 mph44%30.00 "Hg10 mi
4:35 PM37 °FClear.7 mph33%29.99 "Hg10 mi
4:15 PM43 °FSunny.6 mph29%29.99 "Hg10 mi
3:55 PM45 °FSunny.8 mph27%29.99 "Hg10 mi
3:35 PM46 °FSunny.10 mph27%29.98 "Hg10 mi
3:15 PM48 °FSunny.9 mph27%29.98 "Hg10 mi
2:55 PM48 °FSunny.9 mph27%29.98 "Hg10 mi
2:35 PM48 °FSunny.7 mph27%29.98 "Hg10 mi
2:15 PM48 °FSunny.8 mph27%29.98 "Hg10 mi
1:55 PM48 °FSunny.No wind29%29.98 "Hg10 mi
1:35 PM48 °FSunny.7 mph29%29.99 "Hg10 mi
1:15 PM46 °FSunny.6 mph34%30.00 "Hg10 mi
12:55 PM48 °FSunny.7 mph34%30.00 "Hg10 mi
12:35 PM46 °FSunny.6 mph43%30.01 "Hg10 mi
12:15 PM45 °FSunny.6 mph49%30.03 "Hg10 mi
11:55 AM41 °FSunny.No wind57%30.04 "Hg9 mi
11:35 AM41 °FSunny.6 mph57%30.06 "Hg8 mi
11:15 AM39 °FSunny.5 mph56%30.07 "Hg8 mi
10:55 AM37 °FSunny.5 mph60%30.08 "Hg7 mi
10:35 AM36 °FSunny.5 mph60%30.09 "Hg8 mi
10:15 AM34 °FSunny.3 mph60%30.10 "Hg9 mi
9:55 AM30 °FSunny.No wind64%30.10 "Hg9 mi
9:35 AM28 °FSunny.6 mph64%30.10 "Hg10 mi
9:15 AM25 °FSunny.5 mph74%30.10 "Hg10 mi
8:55 AM21 °FSunny.No wind74%30.10 "Hg10 mi
8:35 AM19 °FSunny.6 mph73%30.10 "Hg10 mi
8:15 AM18 °FSunny.No wind68%30.09 "Hg10 mi
7:55 AM12 °FSunny.5 mph73%30.10 "Hg10 mi
7:35 AM12 °FSunny.No wind67%30.10 "Hg10 mi
7:15 AM10 °FClear.No wind72%30.09 "Hg10 mi
6:55 AM10 °FClear.No wind67%30.09 "Hg10 mi
6:35 AM12 °FClear.No wind67%30.09 "Hg10 mi
6:15 AM12 °FClear.5 mph67%30.09 "Hg10 mi
5:55 AM12 °FClear.3 mph67%30.09 "Hg10 mi
5:35 AM12 °FClear.6 mph67%30.08 "Hg10 mi
5:15 AM14 °FClear.No wind67%30.07 "Hg10 mi
Weather by CustomWeather, © 2014

See weather overviewHow to use our weather pages